Bar Harbor, ME

12:15 AM EDT on May 01, 2017 (GMT -0400)
Hancock County-Bar Harbor

Weather History for KBHB - December, 2012

Change the Weather History Date:

Thursday, December 27, 2012

  Actual Average Record
Temperature  
Mean Temperature 28 °F -  
Max Temperature 33 °F 35 °F 55 °F (1964)
Min Temperature 23 °F 19 °F -4 °F (1968)
Degree Days  
Heating Degree Days 37    
Moisture  
Dew Point 29 °F    
Average Humidity 95    
Maximum Humidity 100    
Minimum Humidity 80    
Precipitation  
Precipitation 0.53 in - - ()
Sea Level Pressure  
Sea Level Pressure 29.71 in    
Wind  
Wind Speed 12 mph (NNE)    
Max Wind Speed 28 mph    
Max Gust Speed 37 mph    
Visibility 4 miles    
Events      
Averages and records for this station are not official NWS values.
T = Trace of Precipitation, MM = Missing Value Source: NWS Daily Summary

Daily Weather History Graph

Daily Weather History Graph

Search for Another Location

Airport or City:

Trip Planner

Search our weather history database for the weather conditions in past years. The results will help you decide how hot, cold, wet, or windy it might be!

Date:

Astronomy

Dec. 27, 2012 Rise Set
Actual Time 7:09 AM EST 4:00 PM EST
Civil Twilight 6:35 AM EST 4:34 PM EST
Nautical Twilight 5:58 AM EST 5:10 PM EST
Astronomical Twilight 5:23 AM EST 5:46 PM EST
Moon 3:42 PM EST (12/27) 6:16 AM EST (12/27)
Length of Visible Light 9h 58m
Length of Day
8h 51m
Full, 100% of the Moon is Illuminated
Dec 27
Full
Dec 28
Full
Jan 4
Last Quarter
Jan 11
New
Jan 18
First Quarter

Hourly Weather History & Observations

Time (EST) Temp. Windchill Dew Point Humidity Pressure Visibility Wind Dir Wind Speed Gust Speed Precip Events Conditions
12:15 AM 23.0 °F 14.7 °F 17.6 °F 80% 30.18 in 10.0 mi North 6.9 mph - N/A   Unknown
12:35 AM 23.0 °F 13.9 °F 17.6 °F 80% 30.16 in 10.0 mi North 8.1 mph - N/A   Unknown
12:55 AM 23.0 °F 14.7 °F 17.6 °F 80% 30.15 in 10.0 mi NNE 6.9 mph - N/A   Unknown
1:15 AM 24.8 °F 16.9 °F 19.4 °F 80% 30.13 in 10.0 mi North 6.9 mph - N/A   Unknown
1:35 AM 24.8 °F 20.5 °F 19.4 °F 80% 30.12 in 10.0 mi North 3.5 mph - N/A   Unknown
1:55 AM 24.8 °F 20.5 °F 19.4 °F 80% 30.11 in 10.0 mi North 3.5 mph - N/A   Unknown
2:15 AM 24.8 °F 19.1 °F 21.2 °F 86% 30.10 in 10.0 mi NE 4.6 mph - N/A   Unknown
2:35 AM 26.6 °F 19.1 °F 24.8 °F 93% 30.10 in 10.0 mi NE 6.9 mph - N/A   Unknown
2:55 AM 26.6 °F - 24.8 °F 93% 30.10 in 10.0 mi Calm Calm - N/A   Unknown
3:15 AM 26.6 °F 21.2 °F 24.8 °F 93% 30.09 in 10.0 mi NE 4.6 mph - N/A   Unknown
3:35 AM 26.6 °F 22.6 °F 24.8 °F 93% 30.07 in 10.0 mi North 3.5 mph - N/A   Unknown
3:55 AM 28.4 °F 24.6 °F 24.8 °F 86% 30.05 in 10.0 mi NNW 3.5 mph - N/A   Unknown
4:15 AM 28.4 °F 23.3 °F 24.8 °F 86% 30.03 in 10.0 mi North 4.6 mph - N/A   Unknown
4:55 AM 28.4 °F 20.4 °F 26.6 °F 93% 30.01 in 10.0 mi NE 8.1 mph - N/A   Unknown
5:15 AM 28.4 °F 18.0 °F 26.6 °F 93% 29.99 in 3.0 mi NNE 12.7 mph - N/A   Unknown
5:35 AM 30.2 °F 20.2 °F 28.4 °F 93% 29.98 in 2.5 mi NE 12.7 mph - N/A   Unknown
5:55 AM 30.2 °F 20.2 °F 30.2 °F 100% 29.97 in 1.0 mi NE 12.7 mph - N/A   Unknown
6:15 AM 30.2 °F 20.8 °F 30.2 °F 100% 29.95 in 1.0 mi NE 11.5 mph - N/A   Unknown
6:35 AM 30.2 °F 20.8 °F 28.4 °F 93% 29.94 in 1.0 mi NE 11.5 mph 17.3 mph 0.02 in   Unknown
6:55 AM 30.2 °F 20.2 °F 30.2 °F 100% 29.91 in 0.8 mi NE 12.7 mph 19.6 mph 0.03 in   Unknown
7:15 AM 32.0 °F 22.1 °F 32.0 °F 100% 29.89 in 0.5 mi NE 13.8 mph 19.6 mph 0.01 in   Unknown
7:35 AM 33.8 °F 24.3 °F 33.8 °F 100% 29.87 in 0.5 mi ENE 13.8 mph 19.6 mph 0.02 in   Unknown
7:55 AM 33.8 °F 23.5 °F 33.8 °F 100% 29.86 in 1.2 mi ENE 16.1 mph 24.2 mph 0.06 in   Unknown
8:15 AM 33.8 °F 23.2 °F 33.8 °F 100% 29.84 in 1.5 mi ENE 17.3 mph 25.3 mph 0.02 in   Unknown
8:35 AM 33.8 °F 23.2 °F 33.8 °F 100% 29.82 in 1.2 mi ENE 17.3 mph 28.8 mph 0.03 in   Unknown
8:55 AM 33.8 °F 23.2 °F 33.8 °F 100% 29.80 in 1.5 mi NE 17.3 mph 35.7 mph 0.03 in   Unknown
9:15 AM 33.8 °F 23.5 °F 33.8 °F 100% 29.79 in 1.5 mi ENE 16.1 mph 27.6 mph 0.01 in   Unknown
9:35 AM 33.8 °F 23.5 °F 33.8 °F 100% 29.79 in 1.2 mi ENE 16.1 mph 27.6 mph 0.02 in   Unknown
9:55 AM 33.8 °F 23.5 °F 33.8 °F 100% 29.79 in 0.5 mi ENE 16.1 mph 26.5 mph 0.04 in   Unknown
10:15 AM 33.8 °F 22.2 °F 33.8 °F 100% 29.75 in 0.5 mi ENE 20.7 mph 26.5 mph 0.01 in   Unknown
10:35 AM 33.8 °F 22.2 °F 33.8 °F 100% 29.73 in 0.5 mi NE 20.7 mph 27.6 mph 0.04 in   Unknown
10:55 AM 33.8 °F 23.5 °F 33.8 °F 100% 29.73 in 1.0 mi ENE 16.1 mph 25.3 mph 0.06 in   Unknown
11:35 AM 33.8 °F 22.5 °F 33.8 °F 100% 29.67 in 0.8 mi NE 19.6 mph 29.9 mph 0.05 in   Unknown
11:55 AM 33.8 °F 22.8 °F 33.8 °F 100% 29.64 in 1.0 mi NE 18.4 mph 32.2 mph 0.08 in   Unknown
12:15 PM 33.8 °F 22.2 °F 33.8 °F 100% 29.63 in 1.2 mi NE 20.7 mph 28.8 mph 0.02 in   Unknown
12:35 PM 33.8 °F 23.5 °F 33.8 °F 100% 29.63 in 0.8 mi NE 16.1 mph 26.5 mph 0.05 in   Unknown
12:55 PM 33.8 °F 23.2 °F 33.8 °F 100% 29.60 in 1.0 mi NE 17.3 mph 26.5 mph 0.07 in   Unknown
1:15 PM 33.8 °F 22.8 °F 33.8 °F 100% 29.58 in 1.5 mi NE 18.4 mph 26.5 mph 0.03 in   Unknown
1:35 PM 33.8 °F 22.8 °F 33.8 °F 100% 29.57 in 1.5 mi NE 18.4 mph 28.8 mph 0.05 in   Unknown
2:15 PM 33.8 °F 23.9 °F 33.8 °F 100% 29.56 in 0.5 mi NNE 15.0 mph 24.2 mph N/A   Unknown
2:35 PM 32.0 °F 20.8 °F 32.0 °F 100% 29.55 in 1.2 mi NNE 17.3 mph 20.7 mph N/A   Unknown
2:55 PM 30.2 °F 17.4 °F 30.2 °F 100% 29.54 in 1.2 mi NNE 20.7 mph 25.3 mph N/A   Unknown
3:15 PM 30.2 °F 18.1 °F 28.4 °F 93% 29.54 in 1.2 mi NNE 18.4 mph 23.0 mph N/A   Unknown
3:35 PM 30.2 °F 17.1 °F 30.2 °F 100% 29.54 in 1.0 mi NNE 21.9 mph 25.3 mph N/A   Unknown
3:55 PM 30.2 °F 18.1 °F 30.2 °F 100% 29.53 in 0.8 mi NNE 18.4 mph 28.8 mph N/A   Unknown
4:15 PM 30.2 °F 18.1 °F 30.2 °F 100% 29.52 in 1.0 mi NNE 18.4 mph 26.5 mph N/A   Unknown
4:35 PM 30.2 °F 16.8 °F 28.4 °F 93% 29.51 in 2.0 mi NNE 23.0 mph 32.2 mph N/A   Unknown
4:55 PM 30.2 °F 16.2 °F 28.4 °F 93% 29.50 in 2.0 mi NNE 25.3 mph 33.4 mph N/A   Unknown
5:15 PM 30.2 °F 17.4 °F 28.4 °F 93% 29.50 in 2.5 mi NNE 20.7 mph 34.5 mph N/A   Unknown
5:35 PM 30.2 °F 16.8 °F 28.4 °F 93% 29.48 in 3.0 mi NNE 23.0 mph 36.8 mph N/A   Unknown
5:55 PM 28.4 °F 14.1 °F 28.4 °F 100% 29.47 in 4.0 mi NNE 24.2 mph 33.4 mph N/A   Unknown
6:15 PM 28.4 °F 14.7 °F 26.6 °F 93% 29.46 in 4.0 mi NNE 21.9 mph 31.1 mph N/A   Unknown
6:35 PM 28.4 °F 13.5 °F 26.6 °F 93% 29.45 in 3.0 mi NNE 26.5 mph 35.7 mph N/A   Unknown
6:55 PM 28.4 °F 13.3 °F 28.4 °F 100% 29.44 in 5.0 mi NNE 27.6 mph 35.7 mph N/A   Unknown
7:15 PM 28.4 °F 13.8 °F 28.4 °F 100% 29.43 in 4.0 mi NNE 25.3 mph 34.5 mph N/A   Unknown
7:55 PM 28.4 °F 14.4 °F 28.4 °F 100% 29.42 in 7.0 mi NNE 23.0 mph 29.9 mph N/A   Unknown
8:15 PM 28.4 °F 14.7 °F 28.4 °F 100% 29.41 in 7.0 mi NNE 21.9 mph 29.9 mph N/A   Unknown
8:35 PM 28.4 °F 14.1 °F 28.4 °F 100% 29.41 in 3.0 mi NNE 24.2 mph 31.1 mph N/A   Unknown
8:55 PM 30.2 °F 16.8 °F 28.4 °F 93% 29.41 in 5.0 mi North 23.0 mph 31.1 mph 0.02 in   Unknown
9:15 PM 30.2 °F 17.4 °F 28.4 °F 93% 29.41 in 10.0 mi North 20.7 mph 29.9 mph 0.01 in   Unknown
9:35 PM 30.2 °F 17.4 °F 28.4 °F 93% 29.41 in 4.0 mi NNE 20.7 mph 29.9 mph 0.02 in   Unknown
9:55 PM 30.2 °F 17.8 °F 28.4 °F 93% 29.42 in 2.0 mi North 19.6 mph 28.8 mph 0.03 in   Unknown
10:15 PM 28.4 °F 16.6 °F 26.6 °F 93% 29.42 in 3.0 mi North 16.1 mph 24.2 mph 0.01 in   Unknown
10:35 PM 28.4 °F 16.2 °F 26.6 °F 93% 29.41 in 2.5 mi North 17.3 mph 25.3 mph 0.02 in   Unknown
10:55 PM 28.4 °F 16.2 °F 26.6 °F 93% 29.41 in 2.5 mi North 17.3 mph 27.6 mph 0.03 in   Unknown
11:15 PM 28.4 °F 17.5 °F 26.6 °F 93% 29.42 in 2.0 mi North 13.8 mph 23.0 mph 0.01 in   Unknown
11:35 PM 28.4 °F 17.0 °F 26.6 °F 93% 29.42 in 1.2 mi North 15.0 mph 25.3 mph 0.02 in   Unknown
11:55 PM 28.4 °F 17.0 °F 26.6 °F 93% 29.42 in 1.0 mi North 15.0 mph 24.2 mph 0.03 in   Unknown